Location: Berg
(48.4333°N, 13.9167°E)
Time: 06:22:03
(UTC+00:00)

Okean 2 Rocket - Pass Details

Date: 18 September 2020
Orbit: 616 x 642 km, 82.5° (Epoch: 22 October)

Event Time Altitude Azimuth Distance (km) Brightness Sun altitude
Rises 18:03:16 0° 165° (SSE) 2,934 6.2 -9.6°
Reaches altitude 10° 18:05:38 10° 157° (SSE) 2,027 5.4 -10.0°
Maximum altitude 18:09:44 36° 91° (E) 1,018 3.7 -10.6°
Drops below altitude 10° 18:13:50 10° 25° (NNE) 2,030 5.6 -11.3°
Sets 18:16:12 0° 17° (NNE) 2,939 6.5 -11.7°
